Flag for Germany Weather past 2 weeks in Waren (Müritz), Mecklenburg-Western Pomerania, Germany

Now
52 °F

Passing clouds.


Feels Like: 47 °F
Forecast: 43 / 59 °F
Wind: 14 mph from North

Location: Laage

Current Time: Sep 22, 2014 at 11:07:35 PM

Latest Report: Sep 22, 2014 at 10:20 PM


Visibility: N/A

Pressure: 29.95 "Hg

Humidity: 77%

Dew point: 45 °F

Location of Waren (Müritz)Location

Historic Weather in Waren (Müritz) — Graph

°F

Waren (Müritz) temperature yesterday

Maximum temperature yesterday: 63 °F (at 11:20 AM)
Minimum temperature yesterday: 52 °F (at 5:20 AM)
Average temperature yesterday: 58 °F

Past Weeks' High & Low Weather Summary

 TemperatureHumidityPressure
High75 °F (Sep 15, 2:20 PM)100% (Sep 7, 9:20 PM)30.21 "Hg (Sep 7, 9:20 PM)
Low48 °F (Sep 11, 6:20 AM)50% (Sep 17, 12:20 PM)29.71 "Hg (Sep 22, 9:20 AM)
Average60 °F85%30.03 "Hg
* Reported Sep 7 9:20 PM — Sep 22 9:20 PM, Waren (Müritz), Weather by CustomWeather, © 2014

Note: Actual official high and low records may vary slightly from our data, if they occured in-between our weather recording intervals... More about our weather records

Advertising

Waren (Müritz) weather history for previous 24 hours

 ConditionsComfort  
Time TempWeatherWind HumidityBarometerVisibility
9:20 PM
Sep 22
52 °FPassing clouds.18 mph77%29.95 "HgN/A
8:20 PM52 °FPassing clouds.20 mph82%29.92 "HgN/A
7:20 PM52 °FBroken clouds.20 mph82%29.92 "HgN/A
6:20 PM52 °FScattered showers. Broken clouds.15 mph88%29.89 "HgN/A
5:20 PM52 °FScattered showers. Partly sunny.16 mph82%29.86 "HgN/A
4:20 PM52 °FBroken clouds.15 mph88%29.83 "HgN/A
3:48 PM50 °FLight rain. Partly sunny.15 mph94%29.83 "Hg5 mi
3:20 PM54 °FPartly sunny.16 mph82%29.83 "HgN/A
2:45 PM52 °FLight rain. Broken clouds.15 mph94%29.83 "Hg5 mi
2:20 PM52 °FDrizzle. Fog.18 mph88%29.80 "Hg2 mi
1:20 PM55 °FSprinkles. Broken clouds.17 mph72%29.80 "HgN/A
12:20 PM55 °FSprinkles. Broken clouds.15 mph72%29.77 "HgN/A
11:20 AM52 °FScattered showers. Broken clouds.9 mph88%29.77 "Hg5 mi
10:20 AM50 °FSprinkles. Partly sunny.17 mph88%29.74 "Hg2 mi
9:57 AM54 °FRain showers. Partly sunny.8 mph82%29.74 "Hg2 mi
9:20 AM54 °FPartly sunny.13 mph77%29.71 "HgN/A
8:20 AM52 °FScattered showers. Scattered clouds.17 mph82%29.74 "HgN/A
7:20 AM50 °FPassing clouds.12 mph88%29.74 "HgN/A
6:20 AM50 °FPassing clouds.10 mph88%29.74 "HgN/A
5:20 AM52 °FPassing clouds.14 mph88%29.74 "HgN/A
4:20 AM54 °FPassing clouds.14 mph94%29.77 "HgN/A
3:20 AM54 °FPassing clouds.9 mph94%29.77 "HgN/A
2:20 AM54 °FPassing clouds.10 mph88%29.80 "HgN/A
1:20 AM54 °FPassing clouds.8 mph94%29.80 "HgN/A
12:20 AM55 °FSprinkles. Passing clouds.9 mph88%29.80 "HgN/A
11:20 PM
Sep 21
55 °FPassing clouds.13 mph88%29.80 "HgN/A
Weather by CustomWeather, © 2014

See weather overviewHow to use our weather pages